Location: Eaton
(41.3139°N, 82.0207°W)
Time: 13:26:04
(UTC+00:00)

Lacrosse 4 Rocket - Pass Details

Date: 17 June 2021
Orbit: 543 x 614 km, 68.0° (Epoch: 31 July)

Event Time Altitude Azimuth Distance (km) Brightness Sun altitude
Rises 09:01:21 0° 322° (NW) 2,734 4.9 -8.7°
Reaches altitude 10° 09:03:44 10° 312° (NW) 1,827 3.9 -8.4°
Maximum altitude 09:07:20 31° 250° (WSW) 977 2.1 -7.9°
Drops below altitude 10° 09:10:53 10° 187° (S) 1,800 3.5 -7.4°
Sets 09:13:14 0° 177° (S) 2,687 4.5 -7.1°
